FFT39EF KPDX-KLAX

Flight info

Callsign FFT39EF
Flight time 1h 41m
Altitude 37000
Route HRMNS6 HYJOE JAGWA BURGL IRNMN2
Aircraft A320/M-SDE3FGHIRWY/LB1

Departure

Time 2026-04-20 16:27
Airport Portland International Airport (KPDX)

Arrival

Time 2026-04-20 18:09
Airport Los Angeles International Airport (KLAX)
Time Latitude Longitude Altitude Speed Heading
2026-04-20 16:06 45.59026 -122.59837 29 ft 0 kts 211°
2026-04-20 16:17 45.59033 -122.59832 29 ft 4 kts 211°
2026-04-20 16:17 45.59056 -122.59812 29 ft 4 kts 211°
2026-04-20 16:18 45.59075 -122.59794 28 ft 4 kts 234°
2026-04-20 16:18 45.59080 -122.59763 29 ft 4 kts 302°
2026-04-20 16:18 45.59063 -122.59733 29 ft 4 kts 305°
2026-04-20 16:18 45.59059 -122.59725 28 ft 0 kts 298°
2026-04-20 16:21 45.59082 -122.59784 28 ft 17 kts 299°
2026-04-20 16:21 45.59138 -122.59947 27 ft 19 kts 281°
2026-04-20 16:21 45.59141 -122.60142 27 ft 19 kts 270°
2026-04-20 16:22 45.59070 -122.60286 28 ft 18 kts 225°
2026-04-20 16:22 45.58987 -122.60385 29 ft 16 kts 192°
2026-04-20 16:22 45.58913 -122.60278 27 ft 17 kts 119°
2026-04-20 16:22 45.58856 -122.60130 30 ft 17 kts 119°
2026-04-20 16:23 45.58797 -122.59978 30 ft 18 kts 120°
2026-04-20 16:23 45.58733 -122.59816 31 ft 19 kts 119°
2026-04-20 16:23 45.58664 -122.59638 30 ft 22 kts 119°
2026-04-20 16:23 45.58587 -122.59441 29 ft 24 kts 119°
2026-04-20 16:24 45.58502 -122.59222 27 ft 26 kts 119°
2026-04-20 16:24 45.58412 -122.58992 31 ft 27 kts 120°
2026-04-20 16:24 45.58320 -122.58756 28 ft 28 kts 119°
2026-04-20 16:24 45.58229 -122.58522 28 ft 24 kts 118°
2026-04-20 16:25 45.58168 -122.58376 28 ft 15 kts 136°
2026-04-20 16:25 45.58140 -122.58360 25 ft 0 kts 171°
2026-04-20 16:25 45.58131 -122.58360 28 ft 7 kts 182°
2026-04-20 16:25 45.58078 -122.58397 27 ft 8 kts 220°
2026-04-20 16:26 45.58072 -122.58436 28 ft 5 kts 280°
2026-04-20 16:26 45.58084 -122.58469 28 ft 3 kts 300°
2026-04-20 16:26 45.58102 -122.58515 29 ft 20 kts 299°
2026-04-20 16:26 45.58308 -122.59043 28 ft 97 kts 299°
2026-04-20 16:27 45.58737 -122.60143 29 ft 154 kts 299°
2026-04-20 16:27 45.59313 -122.61613 406 ft 172 kts 300°
2026-04-20 16:27 45.59921 -122.63090 1207 ft 174 kts 302°
2026-04-20 16:27 45.60557 -122.64578 1989 ft 179 kts 303°
2026-04-20 16:28 45.61243 -122.66189 2316 ft 200 kts 302°
2026-04-20 16:28 45.61999 -122.67969 2637 ft 219 kts 303°
2026-04-20 16:28 45.62812 -122.69908 2929 ft 243 kts 302°
2026-04-20 16:28 45.63712 -122.72080 3368 ft 265 kts 301°
2026-04-20 16:29 45.64666 -122.74423 4002 ft 278 kts 300°
2026-04-20 16:29 45.65639 -122.76819 4842 ft 283 kts 299°
2026-04-20 16:29 45.66478 -122.79396 5745 ft 286 kts 285°
2026-04-20 16:29 45.66813 -122.82183 6608 ft 285 kts 268°
2026-04-20 16:30 45.66624 -122.84987 7461 ft 284 kts 253°
2026-04-20 16:30 45.66053 -122.87695 8324 ft 286 kts 247°
2026-04-20 16:30 45.65076 -122.90130 9132 ft 282 kts 223°
2026-04-20 16:30 45.63495 -122.91719 9935 ft 278 kts 198°
2026-04-20 16:31 45.61606 -122.92248 10504 ft 286 kts 176°
2026-04-20 16:31 45.59582 -122.91655 10745 ft 308 kts 163°
2026-04-20 16:31 45.57471 -122.90747 11161 ft 322 kts 163°
2026-04-20 16:31 45.55307 -122.89797 11847 ft 327 kts 160°
2026-04-20 16:32 45.53175 -122.88602 12597 ft 330 kts 158°
2026-04-20 16:32 45.51049 -122.87319 13361 ft 333 kts 158°
2026-04-20 16:32 45.48925 -122.85994 14058 ft 335 kts 158°
2026-04-20 16:32 45.46778 -122.84646 14716 ft 338 kts 158°
2026-04-20 16:33 45.44619 -122.83298 15366 ft 340 kts 158°
2026-04-20 16:33 45.42468 -122.81967 15992 ft 343 kts 158°
2026-04-20 16:33 45.40231 -122.80596 16631 ft 346 kts 158°
2026-04-20 16:33 45.38043 -122.79262 17251 ft 349 kts 158°
2026-04-20 16:34 45.35799 -122.77895 17821 ft 352 kts 158°
2026-04-20 16:34 45.33540 -122.76522 17993 ft 353 kts 158°
2026-04-20 16:34 45.31265 -122.75138 18451 ft 356 kts 158°
2026-04-20 16:34 45.28972 -122.73746 18999 ft 358 kts 158°
2026-04-20 16:35 45.26675 -122.72351 19524 ft 361 kts 158°
2026-04-20 16:35 45.24356 -122.70940 20029 ft 363 kts 158°
2026-04-20 16:35 45.21710 -122.69330 20595 ft 366 kts 159°
2026-04-20 16:35 45.16994 -122.66475 21572 ft 372 kts 159°
2026-04-20 16:36 45.12188 -122.63566 22528 ft 377 kts 159°
2026-04-20 16:36 45.07334 -122.60637 23447 ft 383 kts 159°
2026-04-20 16:36 45.02460 -122.57709 24202 ft 388 kts 159°
2026-04-20 16:36 44.97466 -122.54707 24950 ft 392 kts 159°
2026-04-20 16:37 44.92423 -122.51672 25655 ft 396 kts 159°
2026-04-20 16:37 44.87332 -122.48613 26357 ft 400 kts 159°
2026-04-20 16:37 44.82178 -122.45523 27058 ft 405 kts 159°
2026-04-20 16:37 44.76948 -122.42400 27748 ft 409 kts 159°
2026-04-20 16:38 44.71673 -122.39264 28395 ft 413 kts 159°
2026-04-20 16:38 44.66345 -122.36112 28992 ft 417 kts 159°
2026-04-20 16:38 44.60973 -122.32925 29576 ft 421 kts 159°
2026-04-20 16:38 44.55548 -122.29695 30099 ft 425 kts 159°
2026-04-20 16:39 44.50088 -122.26456 30790 ft 424 kts 160°
2026-04-20 16:39 44.44681 -122.23274 31531 ft 420 kts 160°
2026-04-20 16:39 44.39292 -122.20110 32259 ft 418 kts 161°
2026-04-20 16:39 44.33935 -122.16962 33066 ft 415 kts 161°
2026-04-20 16:40 44.28624 -122.13846 33799 ft 413 kts 162°
2026-04-20 16:40 44.23412 -122.10803 34426 ft 410 kts 162°
2026-04-20 16:40 44.18160 -122.07741 34975 ft 410 kts 162°
2026-04-20 16:40 44.12820 -122.04628 35480 ft 409 kts 162°
2026-04-20 16:41 44.07651 -122.01615 35937 ft 409 kts 162°
2026-04-20 16:41 44.02400 -121.98561 36399 ft 408 kts 162°
2026-04-20 16:41 43.97136 -121.95726 36774 ft 402 kts 172°
2026-04-20 16:41 43.91616 -121.94356 36869 ft 402 kts 173°
2026-04-20 16:42 43.80617 -121.91580 36876 ft 402 kts 173°
2026-04-20 16:42 43.69610 -121.88811 36875 ft 402 kts 173°
2026-04-20 16:43 43.58601 -121.86064 36875 ft 402 kts 173°
2026-04-20 16:43 43.47640 -121.83334 36872 ft 402 kts 173°
2026-04-20 16:44 43.36639 -121.80598 36868 ft 402 kts 173°
2026-04-20 16:44 43.25624 -121.77868 36862 ft 402 kts 173°
2026-04-20 16:45 43.14584 -121.75164 36863 ft 403 kts 173°
2026-04-20 16:45 43.03553 -121.72446 36856 ft 403 kts 173°
2026-04-20 16:46 42.92517 -121.69748 36858 ft 403 kts 173°
2026-04-20 16:46 42.81477 -121.67079 36853 ft 403 kts 173°
2026-04-20 16:47 42.70428 -121.64388 36851 ft 403 kts 173°
2026-04-20 16:47 42.59352 -121.61709 36861 ft 404 kts 173°
2026-04-20 16:48 42.48281 -121.59039 36857 ft 404 kts 173°
2026-04-20 16:48 42.37187 -121.56386 36896 ft 405 kts 173°
2026-04-20 16:49 42.26062 -121.53725 36912 ft 406 kts 173°
2026-04-20 16:49 42.15014 -121.51074 36910 ft 406 kts 173°
2026-04-20 16:50 42.03885 -121.48448 36906 ft 406 kts 173°
2026-04-20 16:50 41.92754 -121.45802 36892 ft 406 kts 173°
2026-04-20 16:51 41.81622 -121.43179 36892 ft 405 kts 173°
2026-04-20 16:51 41.70548 -121.40579 36893 ft 404 kts 173°
2026-04-20 16:52 41.59435 -121.37978 36900 ft 405 kts 173°
2026-04-20 16:52 41.48314 -121.35375 36898 ft 406 kts 173°
2026-04-20 16:53 41.37142 -121.32781 36894 ft 408 kts 173°
2026-04-20 16:53 41.25924 -121.30188 36888 ft 410 kts 173°
2026-04-20 16:54 41.14672 -121.27593 36883 ft 411 kts 173°
2026-04-20 16:54 41.03394 -121.24989 36880 ft 411 kts 173°
2026-04-20 16:55 40.92111 -121.22408 36893 ft 412 kts 173°
2026-04-20 16:55 40.80797 -121.19808 36900 ft 412 kts 173°
2026-04-20 16:56 40.69537 -121.17251 36914 ft 413 kts 173°
2026-04-20 16:56 40.58193 -121.14661 36923 ft 413 kts 173°
2026-04-20 16:57 40.50360 -121.12885 36934 ft 413 kts 173°
2026-04-20 16:57 40.47187 -121.12167 36933 ft 413 kts 173°
2026-04-20 16:58 40.40768 -121.10730 36936 ft 413 kts 173°
2026-04-20 16:58 40.29423 -121.08179 36933 ft 413 kts 173°
2026-04-20 16:59 40.18093 -121.05640 36932 ft 413 kts 173°
2026-04-20 16:59 40.06829 -121.03119 36931 ft 414 kts 173°
2026-04-20 17:00 39.89729 -120.99314 36928 ft 414 kts 173°
2026-04-20 17:01 39.78346 -120.96820 36935 ft 415 kts 173°
2026-04-20 17:01 39.67035 -120.94302 36932 ft 415 kts 173°
2026-04-20 17:02 39.55629 -120.91787 36956 ft 416 kts 173°
2026-04-20 17:02 39.44191 -120.89279 37010 ft 417 kts 173°
2026-04-20 17:03 39.32753 -120.86785 37055 ft 417 kts 173°
2026-04-20 17:03 39.21323 -120.84286 37063 ft 417 kts 173°
2026-04-20 17:04 39.09862 -120.81782 36986 ft 418 kts 173°
2026-04-20 17:04 38.98376 -120.79317 36976 ft 419 kts 173°
2026-04-20 17:05 38.86879 -120.76823 37020 ft 419 kts 173°
2026-04-20 17:05 38.75366 -120.74351 37035 ft 420 kts 173°
2026-04-20 17:06 38.63841 -120.71885 37037 ft 420 kts 173°
2026-04-20 17:06 38.52300 -120.69415 36999 ft 420 kts 173°
2026-04-20 17:07 38.40822 -120.66967 37008 ft 421 kts 173°
2026-04-20 17:07 38.29259 -120.64516 36997 ft 421 kts 173°
2026-04-20 17:08 38.17686 -120.62068 37014 ft 422 kts 173°
2026-04-20 17:08 38.06079 -120.59608 37013 ft 423 kts 173°
2026-04-20 17:09 37.96413 -120.57578 36994 ft 423 kts 173°
2026-04-20 17:09 37.84771 -120.55145 36973 ft 424 kts 173°
2026-04-20 17:10 37.73125 -120.52705 36962 ft 425 kts 173°
2026-04-20 17:10 37.61453 -120.50279 36970 ft 425 kts 173°
2026-04-20 17:11 37.49756 -120.47832 36977 ft 426 kts 174°
2026-04-20 17:11 37.38065 -120.45431 36985 ft 426 kts 174°
2026-04-20 17:12 37.26364 -120.43013 37020 ft 426 kts 174°
2026-04-20 17:12 37.14649 -120.40600 37009 ft 426 kts 174°
2026-04-20 17:13 37.02935 -120.38193 36994 ft 427 kts 174°
2026-04-20 17:13 36.91201 -120.35805 36985 ft 427 kts 174°
2026-04-20 17:14 36.79480 -120.33411 36788 ft 427 kts 174°
2026-04-20 17:14 36.73663 -120.32221 37017 ft 423 kts 174°
2026-04-20 17:14 36.67849 -120.31045 37025 ft 424 kts 174°
2026-04-20 17:15 36.56244 -120.28700 37020 ft 421 kts 174°
2026-04-20 17:15 36.44694 -120.26364 37020 ft 420 kts 174°
2026-04-20 17:16 36.33166 -120.24046 37016 ft 419 kts 173°
2026-04-20 17:16 36.21631 -120.21720 37014 ft 419 kts 173°
2026-04-20 17:17 36.10174 -120.19431 37010 ft 420 kts 173°
2026-04-20 17:17 35.98689 -120.17151 37012 ft 420 kts 173°
2026-04-20 17:18 35.87133 -120.14847 37020 ft 420 kts 173°
2026-04-20 17:19 35.82635 -120.13956 37018 ft 420 kts 173°
2026-04-20 17:20 35.82332 -120.13896 37023 ft 420 kts 173°
2026-04-20 17:20 35.81220 -120.13675 37022 ft 420 kts 173°
2026-04-20 17:21 35.69854 -120.11413 37027 ft 421 kts 172°
2026-04-20 17:21 35.66185 -120.10151 37018 ft 425 kts 160°
2026-04-20 17:21 35.63543 -120.08496 37021 ft 428 kts 151°
2026-04-20 17:22 35.58477 -120.04621 37017 ft 429 kts 151°
2026-04-20 17:22 35.53392 -120.00793 37015 ft 429 kts 152°
2026-04-20 17:23 35.48324 -119.97001 37016 ft 429 kts 151°
2026-04-20 17:23 35.43225 -119.93179 37009 ft 430 kts 151°
2026-04-20 17:24 35.38123 -119.89346 37010 ft 430 kts 151°
2026-04-20 17:24 35.33021 -119.85520 37009 ft 430 kts 151°
2026-04-20 17:25 35.27974 -119.81584 37008 ft 432 kts 145°
2026-04-20 17:25 35.23198 -119.77091 37007 ft 433 kts 145°
2026-04-20 17:26 35.18416 -119.72623 37004 ft 433 kts 146°
2026-04-20 17:26 35.13600 -119.68143 35983 ft 442 kts 146°
2026-04-20 17:26 35.11141 -119.65860 35164 ft 445 kts 146°
2026-04-20 17:27 35.08673 -119.63565 34336 ft 448 kts 146°
2026-04-20 17:27 35.06184 -119.61249 33366 ft 452 kts 146°
2026-04-20 17:27 35.03668 -119.58905 32352 ft 457 kts 146°
2026-04-20 17:27 35.01123 -119.56538 31395 ft 460 kts 146°
2026-04-20 17:28 34.98601 -119.54195 30856 ft 454 kts 146°
2026-04-20 17:28 34.96098 -119.51869 30203 ft 451 kts 146°
2026-04-20 17:28 34.93605 -119.49559 29497 ft 447 kts 147°
2026-04-20 17:28 34.91143 -119.47282 28881 ft 441 kts 147°
2026-04-20 17:29 34.88713 -119.45061 28451 ft 432 kts 147°
2026-04-20 17:29 34.86310 -119.42900 27999 ft 427 kts 148°
2026-04-20 17:29 34.83923 -119.40777 27551 ft 423 kts 148°
2026-04-20 17:29 34.81582 -119.38700 27111 ft 420 kts 148°
2026-04-20 17:30 34.79227 -119.36607 26671 ft 417 kts 148°
2026-04-20 17:30 34.76887 -119.34527 26233 ft 415 kts 148°
2026-04-20 17:30 34.74572 -119.32468 25801 ft 409 kts 148°
2026-04-20 17:30 34.72292 -119.30450 25372 ft 404 kts 149°
2026-04-20 17:31 34.70023 -119.28461 24954 ft 401 kts 149°
2026-04-20 17:31 34.67762 -119.26490 24526 ft 399 kts 149°
2026-04-20 17:31 34.65513 -119.24535 24110 ft 396 kts 149°
2026-04-20 17:31 34.63276 -119.22596 23630 ft 395 kts 149°
2026-04-20 17:32 34.61036 -119.20670 23070 ft 392 kts 150°
2026-04-20 17:32 34.58816 -119.18763 22578 ft 389 kts 149°
2026-04-20 17:32 34.56620 -119.16876 22089 ft 385 kts 149°
2026-04-20 17:32 34.54449 -119.14994 21610 ft 382 kts 149°
2026-04-20 17:33 34.52308 -119.13108 21134 ft 380 kts 148°
2026-04-20 17:33 34.50178 -119.11213 20658 ft 377 kts 148°
2026-04-20 17:33 34.48077 -119.09339 20184 ft 375 kts 148°
2026-04-20 17:33 34.45979 -119.07470 19715 ft 373 kts 148°
2026-04-20 17:34 34.43880 -119.05604 19272 ft 371 kts 148°
2026-04-20 17:34 34.41819 -119.03799 18855 ft 368 kts 149°
2026-04-20 17:34 34.39752 -119.02007 18517 ft 364 kts 149°
2026-04-20 17:34 34.37691 -119.00235 18038 ft 362 kts 149°
2026-04-20 17:35 34.35650 -118.98481 17570 ft 359 kts 149°
2026-04-20 17:35 34.33621 -118.96731 17121 ft 356 kts 148°
2026-04-20 17:35 34.31625 -118.94960 16668 ft 355 kts 147°
2026-04-20 17:35 34.29659 -118.93182 16220 ft 352 kts 147°
2026-04-20 17:36 34.27709 -118.91396 15788 ft 350 kts 146°
2026-04-20 17:36 34.25777 -118.89621 15351 ft 348 kts 147°
2026-04-20 17:36 34.23859 -118.87856 14931 ft 346 kts 146°
2026-04-20 17:36 34.21960 -118.86102 14771 ft 335 kts 146°
2026-04-20 17:37 34.20365 -118.84625 14671 ft 326 kts 146°
2026-04-20 17:37 34.18526 -118.82924 14544 ft 315 kts 146°
2026-04-20 17:37 34.16818 -118.81352 14248 ft 304 kts 146°
2026-04-20 17:37 34.15203 -118.79770 13865 ft 301 kts 143°
2026-04-20 17:38 34.13637 -118.78097 13421 ft 300 kts 141°
2026-04-20 17:38 34.12104 -118.76397 12983 ft 298 kts 141°
2026-04-20 17:38 34.10566 -118.74681 12545 ft 296 kts 141°
2026-04-20 17:38 34.09048 -118.72999 12119 ft 298 kts 141°
2026-04-20 17:39 34.07509 -118.71310 11700 ft 299 kts 141°
2026-04-20 17:39 34.05961 -118.69622 11297 ft 301 kts 141°
2026-04-20 17:39 34.04445 -118.67933 10772 ft 300 kts 136°
2026-04-20 17:39 34.03267 -118.65830 10279 ft 297 kts 116°
2026-04-20 17:40 34.02713 -118.63497 10003 ft 288 kts 100°
2026-04-20 17:40 34.02495 -118.61136 9711 ft 285 kts 99°
2026-04-20 17:40 34.02272 -118.58771 9413 ft 282 kts 99°
2026-04-20 17:40 34.02045 -118.56426 9120 ft 280 kts 99°
2026-04-20 17:41 34.01819 -118.54110 8702 ft 279 kts 99°
2026-04-20 17:41 34.01594 -118.51768 8001 ft 280 kts 99°
2026-04-20 17:41 34.01503 -118.49468 7504 ft 274 kts 85°
2026-04-20 17:41 34.01790 -118.47199 7000 ft 271 kts 82°
2026-04-20 17:42 34.02121 -118.45004 6649 ft 260 kts 81°
2026-04-20 17:42 34.02439 -118.42910 6345 ft 248 kts 81°
2026-04-20 17:42 34.02743 -118.40922 6056 ft 242 kts 81°
2026-04-20 17:42 34.03045 -118.38937 5758 ft 242 kts 81°
2026-04-20 17:43 34.03352 -118.36933 5459 ft 241 kts 81°
2026-04-20 17:43 34.03650 -118.34967 5144 ft 234 kts 81°
2026-04-20 17:43 34.03940 -118.33049 4823 ft 232 kts 81°
2026-04-20 17:43 34.04224 -118.31157 4487 ft 227 kts 81°
2026-04-20 17:44 34.04500 -118.29295 4242 ft 225 kts 81°
2026-04-20 17:44 34.04769 -118.27442 3989 ft 224 kts 81°
2026-04-20 17:44 34.05032 -118.25597 3744 ft 223 kts 81°
2026-04-20 17:44 34.05292 -118.23763 3571 ft 221 kts 81°
2026-04-20 17:45 34.05550 -118.21928 3401 ft 221 kts 81°
2026-04-20 17:45 34.05801 -118.20108 3256 ft 220 kts 81°
2026-04-20 17:45 34.06050 -118.18285 3136 ft 220 kts 81°
2026-04-20 17:45 34.06299 -118.16458 3019 ft 220 kts 81°
2026-04-20 17:46 34.06548 -118.14642 3020 ft 220 kts 81°
2026-04-20 17:46 34.06756 -118.12813 3013 ft 220 kts 91°
2026-04-20 17:46 34.06321 -118.11084 3019 ft 218 kts 126°
2026-04-20 17:46 34.05157 -118.09961 2974 ft 217 kts 160°
2026-04-20 17:47 34.03663 -118.09701 2934 ft 218 kts 179°
2026-04-20 17:47 34.02149 -118.09709 2883 ft 218 kts 181°
2026-04-20 17:47 34.01127 -118.09745 2839 ft 218 kts 182°
2026-04-20 17:47 33.99120 -118.09841 2755 ft 218 kts 182°
2026-04-20 17:48 33.98118 -118.09891 2694 ft 217 kts 182°
2026-04-20 17:48 33.96608 -118.09972 2605 ft 217 kts 185°
2026-04-20 17:48 33.95237 -118.10618 2590 ft 216 kts 224°
2026-04-20 17:48 33.94593 -118.12215 2596 ft 217 kts 266°
2026-04-20 17:49 33.94734 -118.14031 2605 ft 219 kts 278°
2026-04-20 17:49 33.94963 -118.15845 2597 ft 219 kts 278°
2026-04-20 17:49 33.95199 -118.17663 2607 ft 219 kts 278°
2026-04-20 17:49 33.95433 -118.19455 2602 ft 210 kts 278°
2026-04-20 17:50 33.95656 -118.21144 2562 ft 200 kts 278°
2026-04-20 17:50 33.95870 -118.22769 2493 ft 193 kts 278°
2026-04-20 17:50 33.96080 -118.24343 2422 ft 189 kts 278°
2026-04-20 17:50 33.96285 -118.25870 2316 ft 178 kts 278°
2026-04-20 17:51 33.96460 -118.27292 2232 ft 165 kts 272°
2026-04-20 17:51 33.96374 -118.28604 2058 ft 150 kts 262°
2026-04-20 17:51 33.96258 -118.29817 1863 ft 143 kts 262°
2026-04-20 17:51 33.96142 -118.30992 1663 ft 140 kts 262°
2026-04-20 17:52 33.96028 -118.32145 1469 ft 138 kts 262°
2026-04-20 17:52 33.95914 -118.33281 1287 ft 137 kts 262°
2026-04-20 17:52 33.95792 -118.34391 1082 ft 138 kts 262°
2026-04-20 17:52 33.95683 -118.35535 892 ft 137 kts 263°
2026-04-20 17:53 33.95565 -118.36683 735 ft 138 kts 261°
2026-04-20 17:53 33.95449 -118.37820 570 ft 133 kts 261°
2026-04-20 17:53 33.95331 -118.39042 721 ft 165 kts 262°
2026-04-20 17:53 33.95174 -118.40559 1143 ft 201 kts 261°
2026-04-20 17:54 33.94968 -118.42282 1720 ft 211 kts 261°
2026-04-20 17:54 33.94762 -118.44046 2474 ft 214 kts 261°
2026-04-20 17:54 33.94556 -118.45839 3244 ft 218 kts 261°
2026-04-20 17:54 33.94347 -118.47668 3843 ft 224 kts 261°
2026-04-20 17:55 33.94137 -118.49536 3982 ft 225 kts 261°
2026-04-20 17:55 33.93931 -118.51393 4008 ft 224 kts 261°
2026-04-20 17:55 33.93727 -118.53256 4010 ft 223 kts 262°
2026-04-20 17:55 33.93873 -118.55099 4008 ft 224 kts 292°
2026-04-20 17:56 33.94840 -118.56553 4011 ft 225 kts 326°
2026-04-20 17:56 33.96312 -118.57115 4009 ft 225 kts
2026-04-20 17:56 33.97788 -118.56601 4013 ft 223 kts 35°
2026-04-20 17:56 33.98723 -118.55247 4002 ft 202 kts 71°
2026-04-20 17:57 33.99072 -118.53695 4019 ft 185 kts 79°
2026-04-20 17:57 33.99313 -118.52189 4012 ft 181 kts 81°
2026-04-20 17:57 33.99536 -118.50702 4010 ft 180 kts 81°
2026-04-20 17:57 33.99758 -118.49219 4009 ft 180 kts 81°
2026-04-20 17:58 33.99982 -118.47730 4019 ft 180 kts 81°
2026-04-20 17:58 34.00206 -118.46246 4007 ft 180 kts 81°
2026-04-20 17:58 34.00427 -118.44783 4009 ft 180 kts 81°
2026-04-20 17:58 34.00650 -118.43303 4010 ft 180 kts 81°
2026-04-20 17:59 34.00872 -118.41820 4007 ft 179 kts 81°
2026-04-20 17:59 34.01094 -118.40343 4008 ft 179 kts 81°
2026-04-20 17:59 34.01316 -118.38871 4008 ft 179 kts 81°
2026-04-20 17:59 34.01540 -118.37395 4010 ft 179 kts 81°
2026-04-20 18:00 34.01764 -118.35913 3936 ft 179 kts 81°
2026-04-20 18:00 34.01987 -118.34433 3810 ft 179 kts 81°
2026-04-20 18:00 34.02203 -118.32958 3661 ft 178 kts 81°
2026-04-20 18:00 34.02417 -118.31486 3506 ft 178 kts 81°
2026-04-20 18:01 34.02631 -118.30020 3359 ft 177 kts 81°
2026-04-20 18:01 34.02842 -118.28555 3210 ft 177 kts 81°
2026-04-20 18:01 34.03051 -118.27093 3081 ft 177 kts 81°
2026-04-20 18:01 34.03258 -118.25642 2956 ft 177 kts 81°
2026-04-20 18:02 34.03468 -118.24174 2829 ft 177 kts 81°
2026-04-20 18:02 34.03681 -118.22690 2714 ft 177 kts 81°
2026-04-20 18:02 34.03890 -118.21248 2639 ft 177 kts 81°
2026-04-20 18:02 34.03998 -118.19780 2581 ft 176 kts 103°
2026-04-20 18:03 34.03383 -118.18561 2604 ft 173 kts 145°
2026-04-20 18:03 34.02247 -118.18129 2610 ft 173 kts 175°
2026-04-20 18:03 34.01045 -118.18095 2607 ft 174 kts 180°
2026-04-20 18:03 33.99830 -118.18120 2606 ft 174 kts 181°
2026-04-20 18:04 33.98616 -118.18151 2600 ft 174 kts 181°
2026-04-20 18:04 33.97402 -118.18181 2606 ft 174 kts 181°
2026-04-20 18:04 33.96251 -118.18554 2588 ft 174 kts 216°
2026-04-20 18:04 33.95444 -118.19629 2589 ft 176 kts 245°
2026-04-20 18:05 33.95798 -118.22402 2608 ft 179 kts 297°
2026-04-20 18:05 33.96297 -118.23776 2546 ft 180 kts 288°
2026-04-20 18:05 33.96525 -118.25238 2467 ft 177 kts 272°
2026-04-20 18:06 33.96512 -118.26728 2326 ft 177 kts 265°
2026-04-20 18:06 33.96408 -118.28196 2118 ft 176 kts 263°
2026-04-20 18:06 33.96277 -118.29626 1900 ft 168 kts 262°
2026-04-20 18:06 33.96142 -118.30998 1712 ft 163 kts 262°
2026-04-20 18:07 33.96006 -118.32354 1461 ft 162 kts 262°
2026-04-20 18:07 33.95873 -118.33663 1215 ft 151 kts 262°
2026-04-20 18:07 33.95746 -118.34868 988 ft 143 kts 262°
2026-04-20 18:07 33.95634 -118.36035 814 ft 137 kts 263°
2026-04-20 18:08 33.95513 -118.37155 659 ft 131 kts 261°
2026-04-20 18:08 33.95404 -118.38230 494 ft 131 kts 262°
2026-04-20 18:08 33.95297 -118.39322 307 ft 129 kts 263°
2026-04-20 18:08 33.95191 -118.40380 138 ft 125 kts 263°
2026-04-20 18:09 33.95098 -118.41302 107 ft 92 kts 263°
2026-04-20 18:09 33.95041 -118.41861 108 ft 42 kts 263°
2026-04-20 18:09 33.94985 -118.42126 106 ft 31 kts 246°
2026-04-20 18:09 33.94881 -118.42257 104 ft 17 kts 216°
2026-04-20 18:10 33.94783 -118.42282 106 ft 12 kts 176°
2026-04-20 18:10 33.94717 -118.42273 101 ft 9 kts 168°
2026-04-20 18:10 33.94685 -118.42202 98 ft 11 kts 85°
2026-04-20 18:10 33.94695 -118.42113 98 ft 10 kts 82°
2026-04-20 18:11 33.94703 -118.42031 99 ft 10 kts 83°
2026-04-20 18:11 33.94711 -118.41954 98 ft 9 kts 82°
2026-04-20 18:11 33.94719 -118.41883 100 ft 8 kts 85°
2026-04-20 18:11 33.94725 -118.41816 98 ft 8 kts 84°
2026-04-20 18:12 33.94731 -118.41752 98 ft 7 kts 83°
2026-04-20 18:12 33.94739 -118.41669 98 ft 13 kts 83°
2026-04-20 18:12 33.94750 -118.41564 99 ft 12 kts 83°
2026-04-20 18:12 33.94759 -118.41472 99 ft 11 kts 84°
2026-04-20 18:13 33.94778 -118.41382 100 ft 14 kts 69°
2026-04-20 18:13 33.94793 -118.41276 100 ft 13 kts 83°
2026-04-20 18:13 33.94804 -118.41175 100 ft 11 kts 83°
2026-04-20 18:13 33.94813 -118.41089 101 ft 10 kts 81°
2026-04-20 18:14 33.94821 -118.41011 101 ft 9 kts 83°
2026-04-20 18:14 33.94827 -118.40937 100 ft 9 kts 86°
2026-04-20 18:14 33.94794 -118.40881 98 ft 10 kts 161°
2026-04-20 18:14 33.94757 -118.40818 97 ft 10 kts 84°
2026-04-20 18:15 33.94764 -118.40757 96 ft 5 kts 83°
2026-04-20 18:15 33.94768 -118.40721 96 ft 4 kts 82°
2026-04-20 18:15 33.94771 -118.40697 96 ft 0 kts 84°
2026-04-20 18:16 33.94772 -118.40677 96 ft 8 kts 84°
2026-04-20 18:16 33.94768 -118.40625 98 ft 5 kts 128°
2026-04-20 18:17 33.94739 -118.40634 96 ft 5 kts 231°
2026-04-20 18:17 33.94715 -118.40660 95 ft 5 kts 221°
2026-04-20 18:17 33.94704 -118.40672 95 ft 1 kts 220°
2026-04-20 18:17 33.94699 -118.40677 95 ft 0 kts 220°